Location: Dayton
(39.7590°N, 84.1920°W)
Time: 21:56:15
(UTC-04:00)

ATLAS CENTAUR R/B - Visible Passes

Search period start: 27 June 2017 00:00
Search period end: 07 July 2017 00:00
Orbit: 192 x 7750 km, 57.4° (Epoch: 09 April)

Date Brightness Start Highest point End Pass type
(mag) Time Alt. Az. Time Alt. Az. Time Alt. Az.
27 Jun 5.2 01:45:28 32° SSW 01:59:23 63° SE 02:09:06 10° NE visible
27 Jun 5.1 04:43:28 10° WSW 04:59:25 36° NW 05:05:22 10° NNE visible
28 Jun 5.8 00:38:41 31° SSE 00:49:39 42° SE 01:00:54 10° ENE visible
28 Jun 4.9 03:30:17 13° WSW 03:50:58 59° NW 03:58:10 10° NE visible
28 Jun 6.4 23:31:13 23° SE 23:39:25 27° ESE 23:51:15 10° ENE visible
29 Jun 4.9 02:22:43 22° SW 02:42:00 88° NW 02:50:31 10° NE visible
29 Jun 5.3 05:32:24 10° WNW 05:41:37 22° NNW 05:46:07 10° NNE visible
29 Jun 6.8 22:22:44 12° SE 22:29:11 14° ESE 22:37:36 10° E visible
30 Jun 5.3 01:14:04 26° SSW 01:32:12 64° SE 01:42:15 10° NE visible
30 Jun 5.1 04:15:35 10° WSW 04:32:19 37° NW 04:38:27 10° NNE visible
30 Jun 5.9 23:51:00 10° S 00:21:33 43° SE 00:33:09 10° ENE visible
01 Jul 4.9 02:58:35 10° SW 03:22:54 60° NW 03:30:23 10° NE visible
01 Jul 6.4 22:45:17 10° SSE 23:10:24 27° ESE 23:22:35 10° ENE visible
02 Jul 5.0 01:42:56 10° SW 02:12:58 89° NW 02:21:49 10° NE visible
02 Jul 5.4 05:02:35 10° W 05:12:41 23° NNW 05:17:26 10° NNE visible
02 Jul 6.8 21:46:53 10° SE 21:59:16 14° ESE 22:07:56 10° E visible
03 Jul 5.3 00:29:37 10° SSW 01:02:13 64° SE 01:12:38 10° NE visible
03 Jul 5.2 03:44:33 10° WSW 04:02:26 39° NW 04:08:51 10° NNE visible
03 Jul 5.9 23:19:19 10° S 23:50:36 43° SE 00:02:37 10° ENE visible
04 Jul 5.0 02:26:26 10° SW 02:52:02 62° NW 02:59:51 10° NE visible
04 Jul 5.4 05:47:14 10° NW 05:52:09 15° NNW 05:55:11 10° NNE visible
04 Jul 6.5 22:13:04 10° SSE 22:38:30 27° ESE 22:51:03 10° ENE visible
05 Jul 5.0 01:09:52 10° SW 01:41:08 89° SE 01:50:23 10° NE visible
05 Jul 5.4 04:29:37 10° W 04:40:56 25° NNW 04:46:02 10° NNE visible
05 Jul 5.4 23:55:50 10° SSW 00:29:22 63° SE 00:40:17 10° NE visible
06 Jul 5.3 03:10:20 10° WSW 03:29:45 41° NW 03:36:30 10° NNE visible
06 Jul 6.0 22:44:58 10° S 23:16:46 42° ESE 23:29:17 10° ENE visible
